This is the latest recevied weather packets stored in our database for station/object OK1OBR-13. If no packets are shown the sender has not sent any weather packets the latest 1 day(s).
| Time | Temp. | Humidity | Pressure | Rain* | Wind** | Luminosity | Snow |
|---|---|---|---|---|---|---|---|
| 1777967461 | 15.56° C | 53% | 931.1 hPa | 0 mm | 0.45 m/s, 145° | - | - |
| 1777967401 | 15.56° C | 51% | 931 hPa | 0 mm | 0.45 m/s, 146° | - | - |
| 1777967341 | 15.56° C | 51% | 931 hPa | 0 mm | 0.45 m/s, 122° | - | - |
| 1777967281 | 15.56° C | 51% | 931.1 hPa | 0 mm | 0.89 m/s, 165° | - | - |
| 1777967221 | 15.56° C | 52% | 931 hPa | 0 mm | 0.89 m/s, 139° | - | - |
| 1777967163 | 15.56° C | 50% | 931.1 hPa | 0 mm | 0.45 m/s, 122° | - | - |
| 1777967104 | 15.56° C | 54% | 931.1 hPa | 0 mm | 0.45 m/s, 168° | - | - |
| 1777966981 | 15.56° C | 51% | 931.2 hPa | 0 mm | 0.89 m/s, 198° | - | - |
| 1777966921 | 15.56° C | 51% | 931.3 hPa | 0 mm | 0.89 m/s, 169° | - | - |
| 1777966861 | 15.56° C | 51% | 931.2 hPa | 0 mm | 0.45 m/s, 177° | - | - |
| 1777966800 | 15.56° C | 53% | 931.3 hPa | 0 mm | 0.89 m/s, 157° | - | - |
| 1777966741 | 15.56° C | 53% | 931.2 hPa | 0 mm | 0.89 m/s, 170° | - | - |
| 1777966680 | 15.56° C | 53% | 931.2 hPa | 0 mm | 0.45 m/s, 200° | - | - |
| 1777966621 | 15.56° C | 51% | 931.1 hPa | 0 mm | 0.45 m/s, 136° | - | - |
| 1777966562 | 15.56° C | 53% | 931.2 hPa | 0 mm | 0.45 m/s, 142° | - | - |
| 1777966501 | 15.56° C | 54% | 931.1 hPa | 0 mm | 0.45 m/s, 148° | - | - |
| 1777966441 | 15.56° C | 52% | 931.4 hPa | 0 mm | 0.89 m/s, 189° | - | - |
| 1777966381 | 15.56° C | 52% | 931.4 hPa | 0 mm | 0.45 m/s, 137° | - | - |
| 1777966321 | 15.56° C | 51% | 931 hPa | 0 mm | 0.45 m/s, 162° | - | - |
| 1777966261 | 15.56° C | 54% | 931.1 hPa | 0 mm | 0.45 m/s, 166° | - | - |
| 1777966201 | 15.56° C | 53% | 931.3 hPa | 0 mm | 0.89 m/s, 193° | - | - |
| 1777966141 | 15.56° C | 52% | 931.3 hPa | 0 mm | 0.89 m/s, 185° | - | - |
| 1777966080 | 15° C | 51% | 931.2 hPa | 0 mm | 0.45 m/s, 186° | - | - |
| 1777966021 | 15° C | 54% | 931.3 hPa | 0 mm | 0.45 m/s, 192° | - | - |
| 1777965961 | 15° C | 54% | 931.3 hPa | 0 mm | 0.45 m/s, 192° | - | - |
* Rain since midnight (hover to see other rain measurements)
** Current wind speed in m/s (hover to see current wind gust speed)